TimeGMT,TemperatureF,Dew PointF,Humidity,Sea Level PressureIn,VisibilityMPH,Wind Direction,Wind SpeedMPH,Gust SpeedMPH,PrecipitationIn,Events,Conditions,WindDirDegrees,DateUTC
12:00 AM,35,22,48,30.27,12,ENE,4.5,,,,Overcast,70,2013-02-23 00:00:00
12:00 AM,35.6,23.0,60,30.27,6.2,ENE,4.6,-,N/A,,Overcast,70,2013-02-23 00:00:00
12:30 AM,33.8,24.8,70,30.24,6.2,NNE,4.6,-,N/A,,Overcast,20,2013-02-23 00:30:00
1:00 AM,33.8,24.8,70,30.27,6.2,NNE,3.5,-,N/A,,Overcast,30,2013-02-23 01:00:00
1:30 AM,33.8,24.8,70,30.24,6.2,NE,3.5,-,N/A,,Overcast,40,2013-02-23 01:30:00
2:00 AM,33.8,23.0,65,30.24,6.2,NNE,3.5,-,N/A,,Overcast,30,2013-02-23 02:00:00
2:30 AM,33.8,24.8,70,30.24,6.2,NW,2.3,-,N/A,,Overcast,310,2013-02-23 02:30:00
3:00 AM,33.8,24.8,70,30.24,6.2,NW,3.5,-,N/A,,Overcast,320,2013-02-23 03:00:00
3:30 AM,33.8,26.6,75,30.24,6.2,NNE,4.6,-,N/A,,Overcast,20,2013-02-23 03:30:00
4:00 AM,33.8,26.6,75,30.24,6.2,NNE,4.6,-,N/A,,Overcast,20,2013-02-23 04:00:00
4:30 AM,33.8,24.8,70,30.24,6.2,NNE,4.6,-,N/A,,Overcast,30,2013-02-23 04:30:00
5:00 AM,33.8,24.8,70,30.27,6.2,NNE,3.5,-,N/A,,Overcast,30,2013-02-23 05:00:00
5:30 AM,33.8,24.8,70,30.27,6.2,NNE,3.5,-,N/A,,Overcast,30,2013-02-23 05:30:00
6:00 AM,33,26,65,30.28,12,North,2.2,,,,Overcast,0,2013-02-23 06:00:00
6:00 AM,33.8,24.8,70,30.27,6.2,North,2.3,-,N/A,,Overcast,360,2013-02-23 06:00:00
6:30 AM,32.0,26.6,80,30.27,6.2,North,2.3,-,N/A,,Overcast,10,2013-02-23 06:30:00
7:00 AM,32.0,26.6,80,30.27,6.2,North,2.3,-,N/A,,Overcast,10,2013-02-23 07:00:00
7:30 AM,32.0,26.6,80,30.27,6.2,Calm,Calm,-,N/A,,Overcast,0,2013-02-23 07:30:00
8:00 AM,33.8,26.6,75,30.27,6.2,NW,1.2,-,N/A,,Overcast,320,2013-02-23 08:00:00
8:30 AM,33.8,26.6,75,30.27,6.2,Calm,Calm,-,N/A,,Mostly Cloudy,0,2013-02-23 08:30:00
9:00 AM,33.8,26.6,75,30.27,6.2,ENE,2.3,-,N/A,,Mostly Cloudy,70,2013-02-23 09:00:00
9:30 AM,35.6,24.8,65,30.27,6.2,Variable,1.2,-,N/A,,Mostly Cloudy,0,2013-02-23 09:30:00
10:00 AM,35.6,26.6,70,30.27,6.2,South,2.3,-,N/A,,Mostly Cloudy,170,2013-02-23 10:00:00
10:30 AM,35.6,26.6,70,30.27,6.2,ESE,1.2,-,N/A,,Overcast,110,2013-02-23 10:30:00
11:00 AM,35.6,26.6,70,30.27,6.2,East,1.2,-,N/A,,Overcast,80,2013-02-23 11:00:00
11:30 AM,37.4,26.6,65,30.27,6.2,ESE,2.3,-,N/A,,Overcast,120,2013-02-23 11:30:00
12:00 PM,37,27,57,30.29,12,NNE,4.5,,,,Overcast,20,2013-02-23 12:00:00
12:00 PM,37.4,26.6,65,30.27,6.2,NNE,3.5,-,N/A,,Overcast,20,2013-02-23 12:00:00
12:30 PM,37.4,26.6,65,30.27,6.2,NNE,4.6,-,N/A,,Overcast,30,2013-02-23 12:30:00
1:00 PM,37.4,24.8,60,30.27,6.2,NE,4.6,-,N/A,,Overcast,50,2013-02-23 13:00:00
1:30 PM,37.4,26.6,65,30.27,6.2,NE,4.6,-,N/A,,Mostly Cloudy,50,2013-02-23 13:30:00
2:00 PM,37.4,24.8,60,30.27,6.2,NNE,4.6,-,N/A,,Mostly Cloudy,30,2013-02-23 14:00:00
2:30 PM,37.4,26.6,65,30.27,6.2,NE,4.6,-,N/A,,Mostly Cloudy,40,2013-02-23 14:30:00
3:00 PM,37.4,26.6,65,30.24,6.2,NE,4.6,-,N/A,,Mostly Cloudy,40,2013-02-23 15:00:00
3:30 PM,37.4,26.6,65,30.24,6.2,North,4.6,-,N/A,,Overcast,10,2013-02-23 15:30:00
4:00 PM,37.4,26.6,65,30.24,6.2,NNE,4.6,-,N/A,,Mostly Cloudy,20,2013-02-23 16:00:00
4:30 PM,37.4,24.8,60,30.24,6.2,NNE,23.0,-,N/A,,Mostly Cloudy,20,2013-02-23 16:30:00
5:00 PM,37.4,24.8,60,30.27,6.2,NW,2.3,-,N/A,,Overcast,320,2013-02-23 17:00:00
5:30 PM,37.4,26.6,65,30.27,6.2,NNW,2.3,-,N/A,,Mostly Cloudy,340,2013-02-23 17:30:00
6:00 PM,36,27,61,30.29,12,North,4.5,,,,Overcast,10,2013-02-23 18:00:00
6:00 PM,37.4,26.6,65,30.27,6.2,North,3.5,-,N/A,,Mostly Cloudy,10,2013-02-23 18:00:00
6:30 PM,35.6,26.6,70,30.27,6.2,NE,4.6,-,N/A,,Overcast,50,2013-02-23 18:30:00
7:00 PM,37.4,24.8,60,30.27,6.2,ENE,4.6,-,N/A,,Mostly Cloudy,60,2013-02-23 19:00:00
7:30 PM,35.6,26.6,70,30.27,6.2,NE,5.8,-,N/A,,Mostly Cloudy,40,2013-02-23 19:30:00
8:00 PM,35.6,26.6,70,30.30,6.2,ENE,5.8,-,N/A,,Overcast,60,2013-02-23 20:00:00
8:30 PM,35.6,26.6,70,30.30,6.2,ENE,5.8,-,N/A,,Mostly Cloudy,70,2013-02-23 20:30:00
9:00 PM,33.8,26.6,75,30.30,6.2,ENE,5.8,-,N/A,,Mostly Cloudy,70,2013-02-23 21:00:00
9:30 PM,33.8,26.6,75,30.30,6.2,ENE,4.6,-,N/A,,Scattered Clouds,70,2013-02-23 21:30:00
10:00 PM,33.8,24.8,70,30.30,6.2,ENE,5.8,-,N/A,,Scattered Clouds,60,2013-02-23 22:00:00
10:30 PM,30.2,24.8,80,30.33,6.2,NNE,3.5,-,N/A,,Mostly Cloudy,30,2013-02-23 22:30:00
11:00 PM,30.2,26.6,86,30.33,6.2,NNE,3.5,-,N/A,,Mostly Cloudy,20,2013-02-23 23:00:00
11:30 PM,30.2,26.6,86,30.33,6.2,North,3.5,-,N/A,,Mostly Cloudy,10,2013-02-23 23:30:00